Regional Weather Roundup
Issued by NWS Upton, NY

Current Version | Previous Version | Text Only | Print | Product List | Glossary On
Versions: 1 2 3 4 5 6 7 8 9 10 11 12 13 14 15 16 17 18 19 20 21 22 23 24 25 26 27 28 29 30 31 32 33 34 35 36 37 38 39 40 41 42 43 44 45 46 47 48 49 50
000 ASUS41 KOKX 041904 RWROKX REGIONAL WEATHER ROUNDUP NATIONAL WEATHER SERVICE NEW YORK NY 300 PM EDT FRI SEP 04 2015 NOTE: "FAIR" INDICATES FEW OR NO CLOUDS BELOW 12,000 FEET WITH NO SIGNIFICANT WEATHER AND/OR OBSTRUCTIONS TO VISIBILITY. NYZ071-072-176-178-NJZ106-104-042000- NEW YORK CITY METRO AREA CITY SKY/WX TMP DP RH WIND PRES REMARKS CENTRAL PARK MOSUNNY 84 65 52 E8G20 30.13F LAGUARDIA APRT MOSUNNY 82 66 58 NE14G20 30.10F KENNEDY INTL PTSUNNY 81 68 64 SE12 30.11S NEWARK/LIBERTY CLOUDY 83 68 60 NE7 30.09F BRNX BOT. GARD N/A 81 64 57 NE8 30.13R TETERBORO PTSUNNY 82 63 52 E14G22 30.09F $$ NYZ177-179-078>081-042000- LONG ISLAND NEW YORK CITY SKY/WX TMP DP RH WIND PRES REMARKS FARMINGDALE CLOUDY 82 66 58 NE9 30.11S ISLIP PTSUNNY 82 65 56 E10 30.10S SHIRLEY PTSUNNY 81 65 58 NE7 30.12S WESTHAMPTON PTSUNNY 82 63 52 NE16 30.13S MONTAUK POINT N/A 77 65 66 NE9G17 30.14R $$ NYZ052-065-067-042000- HUDSON VALLEY CITY SKY/WX TMP DP RH WIND PRES REMARKS WHITE PLAINS PTSUNNY 81 66 60 E10 30.13S NEWBURGH CLOUDY 79 70 73 E9 30.14F MONTGOMERY CLOUDY 79 68 69 E7 30.13S POUGHKEEPSIE PTSUNNY 82 65 56 W3 30.12S ALBANY MOSUNNY 82 64 54 SW5 30.13F $$ NJZ001-105-106-008-010-013-015-019>022-104-042000- NEW JERSEY CITY SKY/WX TMP DP RH WIND PRES REMARKS NEWARK/LIBERTY CLOUDY 83 68 60 NE7 30.09F TETERBORO PTSUNNY 82 63 52 E14G22 30.09F CALDWELL MOSUNNY 83 65 54 SE12G21 30.11S MORRISTOWN CLOUDY 84 70 61 E8G16 30.10F SOMERVILLE PTSUNNY 84 68 58 E8 30.07S SUSSEX CLOUDY 79 67 66 NE7 30.12S ANDOVER N/A 80 68 66 VRB5 30.12R TRENTON MOSUNNY 85 67 54 SE12G20 30.07S MILLVILLE MOSUNNY 86 66 51 E12G17 30.04R ATLANTIC CITY MOSUNNY 84 70 62 E18 30.05S WRIGHTSTOWN PTSUNNY 80 70 70 NE10 30.05S TOMS RIVER CLOUDY 79 70 73 E12G18 30.09F BELMAR CLOUDY 75 64 69 NE15 30.10F $$ PAZ047>061-062-071-042000- EASTERN PENNSYLVANIA CITY SKY/WX TMP DP RH WIND PRES REMARKS PHILADELPHIA MOSUNNY 90 69 50 E14 30.04R HX 94 ALLENTOWN PTSUNNY 88 69 53 E9 30.07S HX 92 SCRANTON MOSUNNY 85 68 56 VRB5 30.09S $$ CTZ002-004>006-009-010-012-RIZ004-006-007-MAZ004-011-015-042000- SOUTHERN NEW ENGLAND IN CT CITY SKY/WX TMP DP RH WIND PRES REMARKS BRADLEY INTL MOSUNNY 81 60 48 E9 30.14F HARTFORD SUNNY 82 61 48 NE9 30.13F DANBURY CLOUDY 80 61 52 E9 30.14S WTRBRY/OXFORD PTSUNNY 81 61 50 NE6 30.17S BRIDGEPORT PTSUNNY 80 67 64 SE12 30.12S MERIDEN PTSUNNY 83 61 47 NE8 30.13S NEW HAVEN MOSUNNY 79 66 64 SE9 30.12S CHESTER NOT AVBL GROTON PTSUNNY 82 62 50 NE17 30.11S WILLIMANTIC MOSUNNY 81 56 42 NE9 30.14F IN RI CITY SKY/WX TMP DP RH WIND PRES REMARKS PROVIDENCE PTSUNNY 77 60 55 NE15 30.16S BLOCK ISLAND SUNNY 75 66 73 NE10G17 30.14S WESTERLY MOSUNNY 80 59 48 NE14G21 30.14S IN MA CITY SKY/WX TMP DP RH WIND PRES REMARKS BOSTON CLOUDY 68 59 73 E14 30.20S WORCESTER PTSUNNY 72 53 51 E9 30.20S WESTFIELD MOSUNNY 78 56 46 NE5 30.16S PROVINCETOWN N/A 70 61 73 NE15 30.18S NANTUCKET PTSUNNY 73 64 73 NE24 30.13R $$ ANZ330-335-338-340-345-350-353-355-042000- COASTAL MARINE OBSERVATIONS STATION/POSITION TIME SKY/WX TEMP WIND PRES VSBY WAVE AIR SEA DIR/SP/G HT/PER (UTC) (F) (DEG/KT/KT) (MB) (MI) (FT/S) NY HARB ENTRANCE 1750 74 77 70/ 17/ 21 1018.6 4/ 5 4S FIRE IS NOT AVBL 20S FIRE ISLAND 1750 73 75 50/ 17/ 21 1018.3 4/ 5 GREAT SOUTH BAY 1815 75 80 100/ 14/ 17 N/A 23SW MTP 1850 72 74 60/ 19/ 21 1018.9 5/ 5 HUDSON CANYON NOT AVBL KINGS POINT 1800 80 74 20/ 5/ 7 1018.8 EXECUTION ROCKS 1800 76 60/ 12/ 17 N/A CENTRAL LI SOUND NOT AVBL EASTERN LI SOUND 1800 75 71 60/ 10/ 12 N/A ROBBINS REEF 1800 78 90/ 9/ 10 1018.1 $$ >>>>>>>>>>>>>>>>>>>>>>>>>>>> KEY <<<<<<<<<<<<<<<<<<<<<<<<<<< > < > SKY/WX - SKY CONDITION/PRESENT WEATHER < > TMP - TEMPERATURE IN FAHRENHEIT < > DP - DEWPOINT IN FAHRENHEIT < > RH - RELATIVE HUMIDITY IN PERCENT < > WIND - DIRECTION AND SPEED IN MPH < > PRES - MEAN SEA LEVEL PRESSURE IN INCHES OF HG < > WCI - WIND CHILL INDEX < > VSB - VISIBILITY IN MILES < > HX - HEAT INDEX < > TC - TEMPERATURE IN CELSIUS < > VRB - VARIABLE WIND DIRECTION < > < >>>>>>>>>>>>>>>>>>>>>>>>>>>> KEY <<<<<<<<<<<<<<<<<<<<<<<<<<<

USA.gov is the U.S. government's official web portal to all federal, state and local government web resources and services.